Weather History for Bigfork, MN

Change the Weather History Date:

Sunday, October 6, 2013

  Actual Average (KGPZ) Record (KGPZ)
Temperature  
Mean Temperature 48 °F -  
Max Temperature 57 °F 56 °F 81 °F (1970)
Min Temperature 39 °F 35 °F 13 °F (1935)
Degree Days  
Heating Degree Days 17    
Moisture  
Dew Point 42 °F    
Average Humidity 87    
Maximum Humidity 100    
Minimum Humidity 54    
Precipitation  
Precipitation 0.06 in - - ()
Sea Level Pressure  
Sea Level Pressure 29.79 in    
Wind  
Wind Speed 5 mph (North)    
Max Wind Speed 10 mph    
Max Gust Speed 16 mph    
Visibility 9 miles    
Events Rain    
Averages and records for this station are not official NWS values.
T = Trace of Precipitation, MM = Missing Value Source: NWS Daily Summary

Daily Weather History Graph

Daily Weather History Graph

Search for Another Location

Airport:

Trip Planner

Search our weather history database for the weather conditions in past years. The results will help you decide how hot, cold, wet, or windy it might be!

Date:

Astronomy

Oct. 06, 2013 Rise Set
Actual Time 7:21 AM CDT 6:43 PM CDT
Civil Twilight 6:50 AM CDT 7:14 PM CDT
Nautical Twilight 6:14 AM CDT 7:49 PM CDT
Astronomical Twilight 5:38 AM CDT 8:25 PM CDT
Moon 9:16 AM CDT (10/6) 7:31 PM CDT (10/6)
Length of Visible Light 12h 23m
Length of Day
11h 22m
Waxing Crescent, 3% of the Moon is Illuminated
Oct 6
Waxing Crescent
Oct 11
First Quarter
Oct 18
Full
Oct 26
Last Quarter
Nov 3
New

Hourly Weather History & Observations

Time (CDT) Temp. Windchill Dew Point Humidity Pressure Visibility Wind Dir Wind Speed Gust Speed Precip Events Conditions
12:13 AM 44.6 °F 40.7 °F 42.8 °F 93% 29.82 in 10.0 mi North 6.9 mph - 0.06 in Rain Heavy Rain
12:33 AM 44.6 °F 43.1 °F 42.8 °F 93% 29.81 in 10.0 mi NNE 3.5 mph - 0.12 in Rain Rain
12:53 AM 44.6 °F 43.1 °F 42.8 °F 93% 29.82 in 7.0 mi NNE 3.5 mph - 0.01 in Rain Rain
1:13 AM 44.6 °F - 42.8 °F 93% 29.82 in 10.0 mi Calm Calm - 0.02 in   Light Drizzle
1:33 AM 44.6 °F 42.2 °F 42.8 °F 93% 29.81 in 10.0 mi NNE 4.6 mph - 0.02 in   Overcast
1:53 AM 44.6 °F 39.7 °F 42.8 °F 93% 29.79 in 10.0 mi NNE 9.2 mph - N/A   Overcast
2:13 AM 44.6 °F 39.2 °F 42.8 °F 93% 29.78 in 10.0 mi NE 10.4 mph 16.1 mph N/A   Overcast
2:33 AM 44.6 °F 41.4 °F 42.8 °F 93% 29.79 in 10.0 mi NNE 5.8 mph - N/A   Overcast
2:53 AM 44.6 °F 40.7 °F 42.8 °F 93% 29.79 in 10.0 mi North 6.9 mph - N/A   Overcast
3:13 AM 44.6 °F 41.4 °F 42.8 °F 93% 29.78 in 10.0 mi North 5.8 mph - N/A   Overcast
3:33 AM 44.6 °F 42.2 °F 42.8 °F 93% 29.77 in 10.0 mi NE 4.6 mph - N/A   Overcast
3:53 AM 44.6 °F - 42.8 °F 93% 29.78 in 10.0 mi Calm Calm - N/A   Overcast
4:13 AM 44.6 °F - 42.8 °F 93% 29.79 in 10.0 mi Calm Calm - N/A   Overcast
4:33 AM 44.6 °F 43.1 °F 42.8 °F 93% 29.79 in 10.0 mi North 3.5 mph - N/A   Drizzle
4:53 AM 44.6 °F 42.2 °F 42.8 °F 93% 29.78 in 3.0 mi North 4.6 mph - N/A   Heavy Drizzle
5:13 AM 42.8 °F 39.3 °F 42.8 °F 100% 29.77 in 5.0 mi North 5.8 mph - N/A   Overcast
5:33 AM 42.8 °F 39.3 °F 41.0 °F 93% 29.77 in 10.0 mi North 5.8 mph - N/A   Overcast
5:53 AM 42.8 °F 41.1 °F 41.0 °F 93% 29.78 in 10.0 mi North 3.5 mph - N/A Rain Light Rain
6:13 AM 42.8 °F 40.1 °F 41.0 °F 93% 29.79 in 10.0 mi North 4.6 mph - N/A   Drizzle
6:33 AM 42.8 °F 40.1 °F 41.0 °F 93% 29.79 in 7.0 mi NNE 4.6 mph - N/A   Overcast
6:53 AM 42.8 °F 40.1 °F 41.0 °F 93% 29.79 in 4.0 mi North 4.6 mph - N/A Rain Rain
7:13 AM 42.8 °F 39.3 °F 41.0 °F 93% 29.80 in 4.0 mi North 5.8 mph - 0.02 in Rain Rain
7:33 AM 42.8 °F 39.3 °F 41.0 °F 93% 29.79 in 4.0 mi NNW 5.8 mph - 0.03 in Rain Light Rain
7:53 AM 42.8 °F 39.3 °F 41.0 °F 93% 29.79 in 7.0 mi North 5.8 mph - N/A Rain Light Rain
8:13 AM 42.8 °F 40.1 °F 41.0 °F 93% 29.79 in 10.0 mi North 4.6 mph - N/A Rain Light Rain
8:33 AM 42.8 °F 39.3 °F 41.0 °F 93% 29.78 in 10.0 mi North 5.8 mph - N/A   Overcast
8:53 AM 42.8 °F 39.3 °F 41.0 °F 93% 29.79 in 10.0 mi North 5.8 mph - N/A   Overcast
9:13 AM 42.8 °F 40.1 °F 41.0 °F 93% 29.79 in 10.0 mi NNW 4.6 mph - N/A   Overcast
9:33 AM 42.8 °F 38.6 °F 41.0 °F 93% 29.80 in 10.0 mi NNW 6.9 mph - N/A   Overcast
9:53 AM 42.8 °F 37.0 °F 41.0 °F 93% 29.79 in 5.0 mi North 10.4 mph 16.1 mph N/A   Overcast
10:13 AM 42.8 °F 40.1 °F 42.8 °F 100% 29.79 in 5.0 mi North 4.6 mph - N/A   Overcast
10:33 AM 44.6 °F 42.2 °F 42.8 °F 93% 29.79 in 7.0 mi North 4.6 mph - N/A   Overcast
10:53 AM 44.6 °F 40.7 °F 42.8 °F 93% 29.79 in 10.0 mi North 6.9 mph - N/A   Overcast
11:13 AM 44.6 °F 39.7 °F 42.8 °F 93% 29.79 in 10.0 mi North 9.2 mph - N/A   Overcast
11:33 AM 44.6 °F 40.7 °F 42.8 °F 93% 29.79 in 10.0 mi North 6.9 mph - N/A   Overcast
11:53 AM 46.4 °F 41.9 °F 42.8 °F 87% 29.79 in 10.0 mi NNW 9.2 mph - N/A   Overcast
12:13 PM 46.4 °F 41.9 °F 42.8 °F 87% 29.79 in 10.0 mi NNW 9.2 mph - N/A   Overcast
12:33 PM 46.4 °F 41.9 °F 42.8 °F 87% 29.79 in 10.0 mi NNW 9.2 mph - N/A   Overcast
12:53 PM 46.4 °F 42.9 °F 42.8 °F 87% 29.79 in 10.0 mi NNW 6.9 mph - N/A   Overcast
1:13 PM 48.2 °F - 44.6 °F 87% 29.79 in 10.0 mi North 5.8 mph - N/A   Overcast
1:33 PM 48.2 °F - 44.6 °F 87% 29.79 in 10.0 mi North 6.9 mph - N/A   Overcast
1:53 PM 48.2 °F - 44.6 °F 87% 29.78 in 10.0 mi North 9.2 mph - N/A   Overcast
2:13 PM 48.2 °F - 44.6 °F 87% 29.78 in 10.0 mi North 8.1 mph - N/A   Overcast
2:33 PM 48.2 °F - 44.6 °F 87% 29.79 in 10.0 mi NNW 8.1 mph - N/A   Overcast
2:53 PM 48.2 °F - 44.6 °F 87% 29.78 in 10.0 mi NNW 4.6 mph - N/A   Overcast
3:13 PM 51.8 °F - 44.6 °F 76% 29.77 in 10.0 mi NW 6.9 mph - N/A   Mostly Cloudy
3:33 PM 53.6 °F - 42.8 °F 67% 29.78 in 10.0 mi WNW 4.6 mph - N/A   Scattered Clouds
3:53 PM 53.6 °F - 42.8 °F 67% 29.77 in 10.0 mi NW 3.5 mph - N/A   Clear
4:13 PM 55.4 °F - 44.6 °F 67% 29.77 in 10.0 mi NNW 5.8 mph - N/A   Clear
4:33 PM 55.4 °F - 42.8 °F 63% 29.77 in 10.0 mi NW 4.6 mph - N/A   Clear
4:53 PM 55.4 °F - 42.8 °F 63% 29.77 in 10.0 mi NW 8.1 mph - N/A   Clear
5:13 PM 55.4 °F - 44.6 °F 67% 29.77 in 10.0 mi NW 3.5 mph - N/A   Clear
5:33 PM 57.2 °F - 42.8 °F 59% 29.77 in 10.0 mi Calm Calm - N/A   Clear
5:53 PM 55.4 °F - 39.2 °F 54% 29.78 in 10.0 mi NW 3.5 mph - N/A   Clear
6:13 PM 55.4 °F - 41.0 °F 58% 29.78 in 10.0 mi Calm Calm - N/A   Clear
6:33 PM 53.6 °F - 42.8 °F 67% 29.78 in 10.0 mi Calm Calm - N/A   Clear
6:53 PM 48.2 °F - 42.8 °F 82% 29.78 in 10.0 mi Calm Calm - N/A   Clear
7:13 PM 44.6 °F - 41.0 °F 87% 29.79 in 10.0 mi Calm Calm - N/A   Clear
7:33 PM 42.8 °F - 39.2 °F 87% 29.79 in 10.0 mi Calm Calm - N/A   Clear
7:53 PM 41.0 °F - 39.2 °F 93% 29.79 in 10.0 mi Calm Calm - N/A   Clear
8:13 PM 39.2 °F - 37.4 °F 93% 29.79 in 10.0 mi Calm Calm - N/A   Clear
8:33 PM 39.2 °F - 37.4 °F 93% 29.79 in 3.0 mi Calm Calm - N/A   Clear
8:53 PM 39.2 °F - 37.4 °F 93% 29.79 in 10.0 mi Calm Calm - N/A   Clear
9:13 PM 39.2 °F - 37.4 °F 93% 29.78 in 10.0 mi Calm Calm - N/A   Clear
9:33 PM 39.2 °F - 37.4 °F 93% 29.78 in 10.0 mi Calm Calm - N/A   Clear
9:53 PM 39.2 °F - 37.4 °F 93% 29.78 in 10.0 mi Calm Calm - N/A   Clear
10:13 PM 41.0 °F - 37.4 °F 87% 29.78 in 10.0 mi Calm Calm - N/A   Clear
10:33 PM 39.2 °F - 35.6 °F 87% 29.78 in 10.0 mi Calm Calm - N/A   Clear
10:53 PM 41.0 °F - 37.4 °F 87% 29.79 in 10.0 mi Calm Calm - N/A   Clear
11:13 PM 39.2 °F - 37.4 °F 93% 29.79 in 10.0 mi Calm Calm - N/A   Clear
11:33 PM 39.2 °F - 37.4 °F 93% 29.79 in 10.0 mi Calm Calm - N/A   Clear
11:53 PM 41.0 °F - 37.4 °F 87% 29.79 in 10.0 mi Calm Calm - N/A   Clear